Location: Udine
(46.0620°N, 13.2420°E)
Time: 03:30:25
(UTC+02:00)

ISS - Pass Details

Date: 08 May 2021
Orbit: 417 x 422 km, 51.6° (Epoch: 14 June)

Event Time Altitude Azimuth Distance (km) Brightness Sun altitude
Exits shadow 02:48:26 42° 338° (NNW) 617 -2.7 -22.5°
Maximum altitude 02:48:32 42° 344° (NNW) 615 -2.7 -22.5°
Drops below altitude 10° 02:51:47 10° 57° (ENE) 1,510 -0.1 -22.3°
Sets 02:53:57 0° 64° (ENE) 2,377 0.9 -22.1°
